User: anonymous   Login
Location: Nebula Knoll Observatory
(43.6666°N, 71.0000°W)
Time: 11:57:03
(UTC-04:00)
Language:

Cosmos 1782 - Orbit

View from above orbital plane
View from above orbital plane
View from above satellite
View from above satellite

Ground track
Ground track

The orbit data is extracted from the following two-line orbital elements,

1 16986U 86074A   15241.50239833  .00001166  00000-0  79390-4 0  9997
2 16986 082.5057 040.5370 0013204 070.2420 290.0229 15.05296476571869
Epoch (UTC): 29 August 2015 12:03:27
Eccentricity: 0.0013204
inclination: 82.5057°
perigee height: 541 km
apogee height: 560 km
right ascension of ascending node: 40.5370°
argument of perigee: 70.2420°
revolutions per day: 15.05296476
mean anomaly at epoch: 290.0229°
orbit number at epoch: 57186

The dashed part of the orbit path shows where the satellite is in the earth's shadow,  

DLR